,,,PA_Meas_PMT16A,,PR_Meas_QMR101_102,,RH_Meas_QMH101,,SR_Meas_QMS101,,TA_Meas_QMH101,,GenWind,,GenWind,
date,time,status,PA,status,PR,status,RH,status,SR,status,TA,status,DirAvg,status,SpdAvg,
2011-10-24, 00:00:04,VALID,1000.03,VALID,0,VALID,90.7162,VALID,0,VALID,23.6622,VALID,160,VALID,0.841406,
2011-10-24, 00:01:04,VALID,999.974,VALID,0,VALID,90.3271,VALID,0,VALID,23.7402,VALID,179,VALID,1.12266,
2011-10-24, 00:02:04,VALID,999.953,VALID,0,VALID,89.854,VALID,0,VALID,23.7988,VALID,179,VALID,0.803906,
2011-10-24, 00:03:04,VALID,999.892,VALID,0,VALID,89.3352,VALID,0,VALID,23.8786,VALID,200,VALID,0.938281,
2011-10-24, 00:04:04,VALID,999.843,VALID,0,VALID,88.8851,VALID,0,VALID,23.9159,VALID,222,VALID,0.75,
2011-10-24, 00:05:04,VALID,999.799,VALID,0,VALID,88.496,VALID,0,VALID,23.9354,VALID,222,VALID,0.219922,
2011-10-24, 00:06:04,VALID,999.809,VALID,0,VALID,88.2442,VALID,0,VALID,23.9744,VALID,254,VALID,0.556641,
2011-10-24, 00:07:04,VALID,999.81,VALID,0,VALID,88.3892,VALID,0,VALID,23.9354,VALID,309,VALID,0.857422,
2011-10-24, 00:08:04,VALID,999.815,VALID,0,VALID,88.3968,VALID,0,VALID,23.8963,VALID,314,VALID,0.937891,
2011-10-24, 00:09:04,VALID,999.853,VALID,0,VALID,88.5799,VALID,0,VALID,23.8573,VALID,314,VALID,0.711719,
2011-10-24, 00:10:05,VALID,999.856,VALID,0,VALID,88.6943,VALID,0,VALID,23.8378,VALID,314,VALID,0.502734,
2011-10-24, 00:11:05,VALID,999.836,VALID,0,VALID,88.8469,VALID,0,VALID,23.797,VALID,314,VALID,0.811719,
2011-10-24, 00:12:05,VALID,999.868,VALID,0,VALID,89.0529,VALID,0,VALID,23.7597,VALID,314,VALID,0.714844,
2011-10-24, 00:13:05,VALID,999.886,VALID,0,VALID,88.9995,VALID,0,VALID,23.6622,VALID,10,VALID,1.30938,
2011-10-24, 00:14:05,VALID,999.865,VALID,0,VALID,89.175,VALID,0,VALID,23.5451,VALID,11,VALID,0.925781,
2011-10-24, 00:15:05,VALID,999.826,VALID,0,VALID,89.5412,VALID,0,VALID,23.4475,VALID,11,VALID,0.919141,
2011-10-24, 00:16:05,VALID,999.773,VALID,0,VALID,89.9151,VALID,0,VALID,23.4085,VALID,11,VALID,0.944141,
2011-10-24, 00:17:05,VALID,999.726,VALID,0,VALID,90.3194,VALID,0,VALID,23.389,VALID,11,VALID,0.814453,
2011-10-24, 00:18:05,VALID,999.703,VALID,0,VALID,90.5407,VALID,0,VALID,23.389,VALID,11,VALID,0.769922,
2011-10-24, 00:19:05,VALID,999.642,VALID,0,VALID,90.5026,VALID,0,VALID,23.35,VALID,354,VALID,0.714844,
2011-10-24, 00:20:05,VALID,999.665,VALID,0,VALID,90.6017,VALID,0,VALID,23.3305,VALID,354,VALID,0.477344,
2011-10-24, 00:21:05,VALID,999.64,VALID,0,VALID,90.7467,VALID,0,VALID,23.311,VALID,354,VALID,0.241797,
2011-10-24, 00:22:05,VALID,999.642,VALID,0,VALID,90.9603,VALID,0,VALID,23.2932,VALID,354,VALID,0.423828,
2011-10-24, 00:23:05,VALID,999.615,VALID,0,VALID,91.1587,VALID,0,VALID,23.2524,VALID,354,VALID,0.419922,
2011-10-24, 00:24:05,VALID,999.661,VALID,0,VALID,91.38,VALID,0,VALID,23.2524,VALID,354,VALID,0.2875,
2011-10-24, 00:25:05,VALID,999.618,VALID,0,VALID,91.5249,VALID,0,VALID,23.2329,VALID,354,VALID,0,
2011-10-24, 00:26:05,VALID,999.603,VALID,0,VALID,91.5631,VALID,0,VALID,23.2134,VALID,354,VALID,0.0210938,
2011-10-24, 00:27:05,VALID,999.592,VALID,0,VALID,91.6851,VALID,0,VALID,23.2134,VALID,354,VALID,0.508203,
2011-10-24, 00:28:05,VALID,999.573,VALID,0,VALID,91.7385,VALID,0,VALID,23.2134,VALID,209,VALID,0.760547,
2011-10-24, 00:29:05,VALID,999.546,VALID,0,VALID,91.8301,VALID,0,VALID,23.2932,VALID,209,VALID,0.542578,
2011-10-24, 00:30:05,VALID,999.525,VALID,0,VALID,91.8454,VALID,0,VALID,23.35,VALID,209,VALID,0.182422,
2011-10-24, 00:31:05,VALID,999.515,VALID,0,VALID,91.6088,VALID,0,VALID,23.3305,VALID,209,VALID,0.216797,
2011-10-24, 00:32:05,VALID,999.505,VALID,0,VALID,91.4105,VALID,0,VALID,23.3305,VALID,209,VALID,0.021875,
2011-10-24, 00:33:05,VALID,999.489,VALID,0,VALID,91.3342,VALID,0,VALID,23.35,VALID,209,VALID,0.244141,
2011-10-24, 00:34:05,VALID,999.492,VALID,0,VALID,91.3113,VALID,0,VALID,23.389,VALID,209,VALID,0.423047,
2011-10-24, 00:35:05,VALID,999.482,VALID,0,VALID,91.2808,VALID,0,VALID,23.3695,VALID,209,VALID,0.541797,
2011-10-24, 00:36:05,VALID,999.461,VALID,0,VALID,91.3418,VALID,0,VALID,23.35,VALID,209,VALID,0.598047,
2011-10-24, 00:37:05,VALID,999.438,VALID,0,VALID,91.3494,VALID,0,VALID,23.3305,VALID,209,VALID,0.422656,
2011-10-24, 00:38:05,VALID,999.453,VALID,0,VALID,91.3113,VALID,0,VALID,23.2915,VALID,209,VALID,0.194922,
2011-10-24, 00:39:05,VALID,999.434,VALID,0,VALID,91.296,VALID,0,VALID,23.2329,VALID,209,VALID,0,
2011-10-24, 00:40:05,VALID,999.388,VALID,0,VALID,91.4791,VALID,0,VALID,23.2329,VALID,209,VALID,0.0707031,
2011-10-24, 00:41:05,VALID,999.379,VALID,0,VALID,91.6928,VALID,0,VALID,23.2329,VALID,209,VALID,0.319531,
2011-10-24, 00:42:05,VALID,999.35,VALID,0,VALID,91.8454,VALID,0,VALID,23.2329,VALID,209,VALID,0.258984,
2011-10-24, 00:43:05,VALID,999.358,VALID,0,VALID,91.914,VALID,0,VALID,23.2329,VALID,209,VALID,0.294531,
2011-10-24, 00:44:05,VALID,999.36,VALID,0,VALID,91.8072,VALID,0,VALID,23.1744,VALID,209,VALID,0.238672,
2011-10-24, 00:45:05,VALID,999.331,VALID,0,VALID,91.8835,VALID,0,VALID,23.1549,VALID,209,VALID,0,
2011-10-24, 00:46:05,VALID,999.28,VALID,0,VALID,91.9674,VALID,0,VALID,23.1549,VALID,209,VALID,0.430469,
2011-10-24, 00:47:05,VALID,999.233,VALID,0,VALID,92.0437,VALID,0,VALID,23.1354,VALID,209,VALID,0.377344,
2011-10-24, 00:48:05,VALID,999.204,VALID,0,VALID,92.1734,VALID,0,VALID,23.1939,VALID,211,VALID,0.784375,
2011-10-24, 00:49:05,VALID,999.171,VALID,0,VALID,92.2574,VALID,0,VALID,23.2719,VALID,231,VALID,0.717578,
2011-10-24, 00:50:05,VALID,999.122,VALID,0,VALID,92.2879,VALID,0,VALID,23.3695,VALID,261,VALID,0.653125,
2011-10-24, 00:51:05,VALID,999.112,VALID,0,VALID,92.1658,VALID,0,VALID,23.4085,VALID,261,VALID,0.668359,
2011-10-24, 00:52:05,VALID,999.097,VALID,0,VALID,91.9751,VALID,0,VALID,23.4085,VALID,284,VALID,0.4375,
2011-10-24, 00:53:05,VALID,999.1,VALID,0,VALID,91.8683,VALID,0,VALID,23.4085,VALID,284,VALID,0.621094,
2011-10-24, 00:54:05,VALID,999.104,VALID,0,VALID,91.7309,VALID,0,VALID,23.3872,VALID,295,VALID,0.642187,
2011-10-24, 00:55:05,VALID,999.146,VALID,0,VALID,91.6317,VALID,0,VALID,23.4085,VALID,295,VALID,0.818359,
2011-10-24, 00:56:05,VALID,999.162,VALID,0,VALID,91.5554,VALID,0,VALID,23.389,VALID,316,VALID,0.798047,
2011-10-24, 00:57:05,VALID,999.191,VALID,0,VALID,91.5326,VALID,0,VALID,23.3518,VALID,324,VALID,0.648438,
2011-10-24, 00:58:05,VALID,999.189,VALID,0,VALID,91.6317,VALID,0,VALID,23.2915,VALID,329,VALID,0.564062,
2011-10-24, 00:59:05,VALID,999.192,VALID,0,VALID,91.7309,VALID,0,VALID,23.2719,VALID,329,VALID,0.555859,
2011-10-24, 01:00:05,VALID,999.195,VALID,0,VALID,91.8377,VALID,0,VALID,23.2329,VALID,329,VALID,0.792578,
2011-10-24, 01:01:05,VALID,999.214,VALID,0,VALID,91.9369,VALID,0,VALID,23.1939,VALID,329,VALID,0.766406,
2011-10-24, 01:02:05,VALID,999.223,VALID,0,VALID,91.9903,VALID,0,VALID,23.1939,VALID,329,VALID,0.842969,
2011-10-24, 01:03:05,VALID,999.228,VALID,0,VALID,91.9903,VALID,0,VALID,23.1354,VALID,351,VALID,0.963672,
2011-10-24, 01:04:05,VALID,999.181,VALID,0,VALID,92.0132,VALID,0,VALID,23.0964,VALID,356,VALID,0.953125,
2011-10-24, 01:05:05,VALID,999.141,VALID,0,VALID,91.9674,VALID,0,VALID,23.0183,VALID,21,VALID,1.41445,
2011-10-24, 01:06:05,VALID,999.119,VALID,0,VALID,92.0056,VALID,0,VALID,22.9403,VALID,20,VALID,1.43359,
2011-10-24, 01:07:05,VALID,999.058,VALID,0,VALID,92.1048,VALID,0,VALID,22.9208,VALID,10,VALID,1.21914,
2011-10-24, 01:08:05,VALID,999.03,VALID,0,VALID,92.3337,VALID,0,VALID,22.9385,VALID,10,VALID,0.732813,
2011-10-24, 01:09:05,VALID,998.984,VALID,0,VALID,92.4023,VALID,0,VALID,22.9598,VALID,10,VALID,0.535156,
2011-10-24, 01:10:05,VALID,998.964,VALID,0,VALID,92.4405,VALID,0,VALID,22.9793,VALID,351,VALID,0.624219,
2011-10-24, 01:11:05,VALID,998.964,VALID,0,VALID,92.471,VALID,0,VALID,22.9598,VALID,351,VALID,0.614844,
2011-10-24, 01:12:05,VALID,998.98,VALID,0,VALID,92.5473,VALID,0,VALID,22.9598,VALID,351,VALID,0.620703,
2011-10-24, 01:13:05,VALID,998.967,VALID,0,VALID,92.5397,VALID,0,VALID,22.9403,VALID,351,VALID,0.675781,
2011-10-24, 01:14:05,VALID,998.992,VALID,0,VALID,92.532,VALID,0,VALID,22.9208,VALID,351,VALID,0.790234,
2011-10-24, 01:15:05,VALID,998.974,VALID,0,VALID,92.6083,VALID,0,VALID,22.88,VALID,351,VALID,0.728906,
2011-10-24, 01:16:05,VALID,998.976,VALID,0,VALID,92.6541,VALID,0.104696,VALID,22.88,VALID,351,VALID,0.542188,
2011-10-24, 01:17:05,VALID,999.034,VALID,0,VALID,92.7151,VALID,0,VALID,22.8605,VALID,351,VALID,0.346484,
2011-10-24, 01:18:05,VALID,999.006,VALID,0,VALID,92.677,VALID,0,VALID,22.8427,VALID,100,VALID,0.688672,
2011-10-24, 01:19:05,VALID,998.989,VALID,0,VALID,92.7685,VALID,0,VALID,22.8623,VALID,100,VALID,0.709375,
2011-10-24, 01:20:05,VALID,999.013,VALID,0,VALID,92.7609,VALID,0,VALID,22.8623,VALID,86,VALID,1.47578,
2011-10-24, 01:21:05,VALID,999.047,VALID,0,VALID,92.677,VALID,0,VALID,22.8623,VALID,85,VALID,1.32852,
2011-10-24, 01:22:05,VALID,999.068,VALID,0,VALID,92.5702,VALID,0,VALID,22.8818,VALID,87,VALID,1.17656,
2011-10-24, 01:23:05,VALID,999.021,VALID,0,VALID,92.5015,VALID,0,VALID,22.9403,VALID,118,VALID,0.890234,
2011-10-24, 01:24:05,VALID,999.027,VALID,0,VALID,92.4252,VALID,0,VALID,22.9598,VALID,105,VALID,1.01523,
2011-10-24, 01:25:05,VALID,999.028,VALID,0,VALID,92.4939,VALID,0,VALID,22.9776,VALID,104,VALID,1.36602,
2011-10-24, 01:26:05,VALID,999.015,VALID,0,VALID,92.6236,VALID,0,VALID,23.0378,VALID,116,VALID,1.55234,
2011-10-24, 01:27:05,VALID,998.955,VALID,0,VALID,92.6694,VALID,0,VALID,23.0964,VALID,131,VALID,0.850781,
2011-10-24, 01:28:05,VALID,998.948,VALID,0,VALID,92.7228,VALID,0,VALID,23.1159,VALID,130,VALID,0.462109,
2011-10-24, 01:29:05,VALID,998.954,VALID,0,VALID,92.6846,VALID,0,VALID,23.1549,VALID,111,VALID,0.776172,
2011-10-24, 01:30:05,VALID,998.943,VALID,0,VALID,92.6541,VALID,0,VALID,23.1744,VALID,100,VALID,0.736328,
2011-10-24, 01:31:05,VALID,998.918,VALID,0,VALID,92.5473,VALID,0,VALID,23.1744,VALID,98,VALID,0.681641,
2011-10-24, 01:32:05,VALID,998.94,VALID,0,VALID,92.4328,VALID,0,VALID,23.1939,VALID,98,VALID,0.79375,
2011-10-24, 01:33:05,VALID,998.915,VALID,0,VALID,92.265,VALID,0,VALID,23.1939,VALID,98,VALID,0.133594,
2011-10-24, 01:34:05,VALID,998.915,VALID,0,VALID,92.12,VALID,0,VALID,23.1744,VALID,98,VALID,0,
2011-10-24, 01:35:05,VALID,998.887,VALID,0,VALID,92.0056,VALID,0,VALID,23.1549,VALID,98,VALID,0.235156,
2011-10-24, 01:36:05,VALID,998.903,VALID,0,VALID,91.9369,VALID,0,VALID,23.1354,VALID,98,VALID,0.359375,
2011-10-24, 01:37:05,VALID,998.894,VALID,0,VALID,91.9751,VALID,0,VALID,23.1159,VALID,74,VALID,1.03555,
2011-10-24, 01:38:05,VALID,998.919,VALID,0,VALID,91.9751,VALID,0,VALID,23.1354,VALID,70,VALID,1.21016,
2011-10-24, 01:39:05,VALID,998.917,VALID,0,VALID,91.9064,VALID,0,VALID,23.1531,VALID,53,VALID,1.23438,
2011-10-24, 01:40:05,VALID,998.97,VALID,0,VALID,91.7767,VALID,0,VALID,23.1744,VALID,48,VALID,1.38281,
2011-10-24, 01:41:05,VALID,998.98,VALID,0,VALID,91.6851,VALID,0,VALID,23.1744,VALID,50,VALID,1.45547,
2011-10-24, 01:42:05,VALID,998.997,VALID,0,VALID,91.6623,VALID,0,VALID,23.1939,VALID,51,VALID,1.36289,
2011-10-24, 01:43:05,VALID,999.011,VALID,0,VALID,91.6317,VALID,0,VALID,23.2134,VALID,58,VALID,1.19141,
2011-10-24, 01:44:05,VALID,999.01,VALID,0,VALID,91.6088,VALID,0,VALID,23.2329,VALID,64,VALID,1.52578,
2011-10-24, 01:45:05,VALID,999.001,VALID,0,VALID,91.5402,VALID,0,VALID,23.2719,VALID,65,VALID,1.34766,
2011-10-24, 01:46:05,VALID,998.969,VALID,0,VALID,91.4486,VALID,0,VALID,23.311,VALID,65,VALID,1.23516,
2011-10-24, 01:47:05,VALID,998.916,VALID,0,VALID,91.3647,VALID,0,VALID,23.311,VALID,64,VALID,1.26094,
2011-10-24, 01:48:05,VALID,998.898,VALID,0,VALID,91.3113,VALID,0,VALID,23.3323,VALID,63,VALID,1.06953,
2011-10-24, 01:49:05,VALID,998.849,VALID,0,VALID,91.2579,VALID,0,VALID,23.3305,VALID,63,VALID,0.609375,
2011-10-24, 01:50:05,VALID,998.832,VALID,0,VALID,91.2274,VALID,0,VALID,23.3305,VALID,63,VALID,0.118359,
2011-10-24, 01:51:05,VALID,998.831,VALID,0,VALID,91.1816,VALID,0,VALID,23.311,VALID,63,VALID,0.498437,
2011-10-24, 01:52:05,VALID,998.845,VALID,0,VALID,91.235,VALID,0,VALID,23.311,VALID,167,VALID,0.847656,
2011-10-24, 01:53:05,VALID,998.825,VALID,0,VALID,91.3266,VALID,0,VALID,23.2915,VALID,175,VALID,0.675,
2011-10-24, 01:54:05,VALID,998.812,VALID,0,VALID,91.5707,VALID,0,VALID,23.35,VALID,177,VALID,1.14883,
2011-10-24, 01:55:05,VALID,998.877,VALID,0,VALID,91.6546,VALID,0,VALID,23.428,VALID,177,VALID,0.499609,
2011-10-24, 01:56:05,VALID,998.882,VALID,0,VALID,91.5631,VALID,0,VALID,23.428,VALID,174,VALID,0.367969,
2011-10-24, 01:57:05,VALID,998.891,VALID,0,VALID,91.38,VALID,0,VALID,23.4671,VALID,174,VALID,0.0941406,
2011-10-24, 01:58:05,VALID,998.87,VALID,0,VALID,91.2655,VALID,0,VALID,23.4866,VALID,174,VALID,0.292578,
2011-10-24, 01:59:05,VALID,998.863,VALID,0,VALID,91.2045,VALID,0,VALID,23.4671,VALID,174,VALID,0.168359,
2011-10-24, 02:00:05,VALID,998.887,VALID,0,VALID,91.1206,VALID,0,VALID,23.5061,VALID,174,VALID,0.0714844,
2011-10-24, 02:01:05,VALID,998.908,VALID,0,VALID,90.9298,VALID,0,VALID,23.4866,VALID,174,VALID,0.181641,
2011-10-24, 02:02:05,VALID,998.888,VALID,0,VALID,90.823,VALID,0,VALID,23.5079,VALID,174,VALID,0,
2011-10-24, 02:03:05,VALID,998.906,VALID,0,VALID,90.7391,VALID,0,VALID,23.5061,VALID,174,VALID,0,
2011-10-24, 02:04:05,VALID,998.894,VALID,0,VALID,90.7543,VALID,0,VALID,23.4866,VALID,174,VALID,0.0183594,
2011-10-24, 02:05:05,VALID,998.91,VALID,0,VALID,90.8688,VALID,0,VALID,23.4866,VALID,174,VALID,0.623828,
2011-10-24, 02:06:05,VALID,998.921,VALID,0,VALID,90.8917,VALID,0,VALID,23.4866,VALID,162,VALID,0.905469,
2011-10-24, 02:07:05,VALID,998.903,VALID,0,VALID,90.9069,VALID,0,VALID,23.4866,VALID,162,VALID,0.984375,
2011-10-24, 02:08:05,VALID,998.939,VALID,0,VALID,90.8154,VALID,0,VALID,23.5061,VALID,182,VALID,0.924609,
2011-10-24, 02:09:05,VALID,998.947,VALID,0,VALID,90.617,VALID,0,VALID,23.5451,VALID,183,VALID,0.830078,
2011-10-24, 02:10:05,VALID,998.99,VALID,0,VALID,90.4415,VALID,0,VALID,23.6427,VALID,183,VALID,1.13633,
2011-10-24, 02:11:05,VALID,998.997,VALID,0,VALID,90.0753,VALID,0,VALID,23.6604,VALID,178,VALID,1.01563,
2011-10-24, 02:12:05,VALID,999.013,VALID,0,VALID,89.5641,VALID,0,VALID,23.7402,VALID,172,VALID,0.972266,
2011-10-24, 02:13:05,VALID,998.99,VALID,0,VALID,89.0148,VALID,0,VALID,23.8183,VALID,162,VALID,0.983984,
2011-10-24, 02:14:05,VALID,998.987,VALID,0,VALID,88.7783,VALID,0,VALID,23.8573,VALID,162,VALID,1.03281,
2011-10-24, 02:15:05,VALID,998.97,VALID,0,VALID,88.5723,VALID,0,VALID,23.9159,VALID,161,VALID,1.21406,
2011-10-24, 02:16:05,VALID,998.945,VALID,0,VALID,88.3815,VALID,0,VALID,23.9567,VALID,161,VALID,0.996484,
2011-10-24, 02:17:05,VALID,998.897,VALID,0,VALID,87.8474,VALID,0,VALID,23.9939,VALID,161,VALID,0.827344,
2011-10-24, 02:18:05,VALID,998.849,VALID,0,VALID,87.4812,VALID,0,VALID,24.072,VALID,161,VALID,0.774609,
2011-10-24, 02:19:05,VALID,998.849,VALID,0,VALID,87.0311,VALID,0,VALID,24.1305,VALID,161,VALID,0.774219,
2011-10-24, 02:20:05,VALID,998.876,VALID,0,VALID,86.5123,VALID,0,VALID,24.2086,VALID,161,VALID,1.13828,
2011-10-24, 02:21:05,VALID,998.86,VALID,0,VALID,86.0392,VALID,0,VALID,24.3062,VALID,157,VALID,1.46133,
2011-10-24, 02:22:05,VALID,998.873,VALID,0,VALID,85.9706,VALID,0,VALID,24.3861,VALID,143,VALID,1.45781,
2011-10-24, 02:23:05,VALID,998.857,VALID,0,VALID,86.1079,VALID,0,VALID,24.4037,VALID,134,VALID,1.75625,
2011-10-24, 02:24:05,VALID,998.898,VALID,0,VALID,86.2452,VALID,0,VALID,24.4233,VALID,126,VALID,1.81602,
2011-10-24, 02:25:05,VALID,998.87,VALID,0,VALID,86.4817,VALID,0,VALID,24.4233,VALID,121,VALID,2.12344,
2011-10-24, 02:26:05,VALID,998.885,VALID,0,VALID,86.764,VALID,0,VALID,24.3842,VALID,115,VALID,2.1457,
2011-10-24, 02:27:05,VALID,998.893,VALID,0,VALID,86.7946,VALID,0,VALID,24.3257,VALID,118,VALID,2.38594,
2011-10-24, 02:28:05,VALID,998.884,VALID,0,VALID,85.261,VALID,0,VALID,24.3257,VALID,130,VALID,2.08008,
2011-10-24, 02:29:05,VALID,998.907,VALID,0,VALID,86.2529,VALID,0,VALID,24.3842,VALID,124,VALID,1.7207,
2011-10-24, 02:30:05,VALID,998.908,VALID,0,VALID,86.3673,VALID,0,VALID,24.3452,VALID,124,VALID,1.32383,
2011-10-24, 02:31:05,VALID,998.888,VALID,0,VALID,86.1689,VALID,0,VALID,24.3257,VALID,116,VALID,1.04492,
2011-10-24, 02:32:05,VALID,998.86,VALID,0,VALID,86.5657,VALID,0,VALID,24.3062,VALID,120,VALID,1.06211,
2011-10-24, 02:33:05,VALID,998.88,VALID,0,VALID,86.9929,VALID,0,VALID,24.2866,VALID,86,VALID,1.16523,
2011-10-24, 02:34:05,VALID,998.889,VALID,0,VALID,87.0769,VALID,0,VALID,24.2671,VALID,86,VALID,1.11328,
2011-10-24, 02:35:05,VALID,998.827,VALID,0,VALID,87.1913,VALID,0,VALID,24.2476,VALID,99,VALID,1.80156,
2011-10-24, 02:36:05,VALID,998.792,VALID,0,VALID,87.0158,VALID,0,VALID,24.2281,VALID,94,VALID,1.08555,
2011-10-24, 02:37:05,VALID,998.701,VALID,0,VALID,87.3592,VALID,0,VALID,24.2086,VALID,98,VALID,0.754687,
2011-10-24, 02:38:05,VALID,998.685,VALID,0,VALID,87.7254,VALID,0,VALID,24.1891,VALID,101,VALID,0.427734,
2011-10-24, 02:39:05,VALID,998.651,VALID,0,VALID,87.9771,VALID,0,VALID,24.15,VALID,101,VALID,0.0203125,
2011-10-24, 02:40:05,VALID,998.607,VALID,0,VALID,88.1526,VALID,0,VALID,24.1305,VALID,101,VALID,0.0046875,
2011-10-24, 02:41:05,VALID,998.596,VALID,0,VALID,88.2366,VALID,0,VALID,24.111,VALID,101,VALID,0.407813,
2011-10-24, 02:42:05,VALID,998.561,VALID,0,VALID,88.2823,VALID,0,VALID,24.0915,VALID,101,VALID,0.599609,
2011-10-24, 02:43:05,VALID,998.505,VALID,0,VALID,88.4654,VALID,0,VALID,24.0506,VALID,77,VALID,0.582031,
2011-10-24, 02:44:05,VALID,998.568,VALID,0,VALID,88.5417,VALID,0,VALID,24.072,VALID,68,VALID,0.73125,
2011-10-24, 02:45:05,VALID,998.527,VALID,0,VALID,88.8546,VALID,0,VALID,24.0525,VALID,50,VALID,0.864062,
2011-10-24, 02:46:05,VALID,998.539,VALID,0,VALID,89.114,VALID,0,VALID,23.9921,VALID,50,VALID,0.991016,
2011-10-24, 02:47:05,VALID,998.524,VALID,0,VALID,89.32,VALID,0,VALID,24.0134,VALID,50,VALID,1.24063,
2011-10-24, 02:48:05,VALID,998.51,VALID,0,VALID,89.3963,VALID,0,VALID,24.0134,VALID,51,VALID,1.2207,
2011-10-24, 02:49:05,VALID,998.532,VALID,0,VALID,89.1368,VALID,0,VALID,23.9939,VALID,59,VALID,1.01875,
2011-10-24, 02:50:05,VALID,998.531,VALID,0,VALID,89.2437,VALID,0,VALID,24.0134,VALID,59,VALID,0.7625,
2011-10-24, 02:51:05,VALID,998.588,VALID,0,VALID,89.4497,VALID,0,VALID,24.0134,VALID,59,VALID,0.734375,
2011-10-24, 02:52:05,VALID,998.641,VALID,0,VALID,89.7091,VALID,0,VALID,23.9939,VALID,81,VALID,0.935547,
2011-10-24, 02:53:05,VALID,998.679,VALID,0,VALID,89.9227,VALID,0,VALID,23.9744,VALID,90,VALID,0.851563,
2011-10-24, 02:54:05,VALID,998.711,VALID,0,VALID,90.1363,VALID,0,VALID,23.9957,VALID,116,VALID,1.33945,
2011-10-24, 02:55:04,VALID,998.703,VALID,0,VALID,90.3957,VALID,0,VALID,23.9549,VALID,128,VALID,1.59375,
2011-10-24, 02:56:04,VALID,998.687,VALID,0,VALID,90.5331,VALID,0,VALID,23.9354,VALID,125,VALID,1.12617,
2011-10-24, 02:57:04,VALID,998.703,VALID,0,VALID,90.7238,VALID,0,VALID,23.9159,VALID,114,VALID,0.869922,
2011-10-24, 02:58:04,VALID,998.67,VALID,0,VALID,90.8077,VALID,0,VALID,23.8963,VALID,108,VALID,0.705859,
2011-10-24, 02:59:04,VALID,998.663,VALID,0,VALID,90.8383,VALID,0,VALID,23.8573,VALID,108,VALID,0.659375,
2011-10-24, 03:00:04,VALID,998.659,VALID,0,VALID,90.9069,VALID,0,VALID,23.8378,VALID,108,VALID,0.349609,
2011-10-24, 03:01:04,VALID,998.635,VALID,0,VALID,90.9374,VALID,0,VALID,23.8183,VALID,108,VALID,0.437891,
2011-10-24, 03:02:04,VALID,998.573,VALID,0,VALID,90.8993,VALID,0,VALID,23.7988,VALID,108,VALID,0.373828,
2011-10-24, 03:03:04,VALID,998.608,VALID,0,VALID,90.9069,VALID,0,VALID,23.7988,VALID,108,VALID,0.115234,
2011-10-24, 03:04:04,VALID,998.594,VALID,0,VALID,90.9069,VALID,0,VALID,23.7579,VALID,108,VALID,0.0046875,
2011-10-24, 03:05:04,VALID,998.568,VALID,0,VALID,90.9298,VALID,0,VALID,23.7793,VALID,108,VALID,0,
2011-10-24, 03:06:04,VALID,998.578,VALID,0,VALID,90.9603,VALID,0,VALID,23.7597,VALID,108,VALID,0,
2011-10-24, 03:07:04,VALID,998.577,VALID,0,VALID,91.0748,VALID,0,VALID,23.7402,VALID,108,VALID,0,
2011-10-24, 03:08:04,VALID,998.571,VALID,0,VALID,91.1968,VALID,0,VALID,23.7402,VALID,108,VALID,0,
2011-10-24, 03:09:04,VALID,998.595,VALID,0,VALID,91.2808,VALID,0,VALID,23.7402,VALID,108,VALID,0,
2011-10-24, 03:10:04,VALID,998.609,VALID,0,VALID,91.4181,VALID,0,VALID,23.7384,VALID,108,VALID,0.499219,
2011-10-24, 03:11:04,VALID,998.624,VALID,0,VALID,91.5631,VALID,0,VALID,23.7402,VALID,108,VALID,0.586719,
2011-10-24, 03:12:04,VALID,998.65,VALID,0,VALID,91.7157,VALID,0,VALID,23.7207,VALID,108,VALID,0.560156,
2011-10-24, 03:13:04,VALID,998.667,VALID,0,VALID,91.8454,VALID,0,VALID,23.703,VALID,108,VALID,0.505859,
2011-10-24, 03:14:04,VALID,998.681,VALID,0,VALID,91.9369,VALID,0,VALID,23.6622,VALID,108,VALID,0.266797,
2011-10-24, 03:15:04,VALID,998.67,VALID,0,VALID,92.0514,VALID,0,VALID,23.6427,VALID,108,VALID,0,
2011-10-24, 03:16:04,VALID,998.636,VALID,0,VALID,92.1353,VALID,0,VALID,23.6232,VALID,108,VALID,0,
2011-10-24, 03:17:04,VALID,998.642,VALID,0,VALID,92.1963,VALID,0,VALID,23.6232,VALID,108,VALID,0.0761719,
2011-10-24, 03:18:04,VALID,998.624,VALID,0,VALID,92.3031,VALID,0,VALID,23.6036,VALID,108,VALID,0.218359,
2011-10-24, 03:19:04,VALID,998.641,VALID,0,VALID,92.326,VALID,0,VALID,23.6036,VALID,108,VALID,0.176172,
2011-10-24, 03:20:04,VALID,998.646,VALID,0,VALID,92.41,VALID,0,VALID,23.6036,VALID,108,VALID,0,
2011-10-24, 03:21:04,VALID,998.709,VALID,0,VALID,92.4252,VALID,0,VALID,23.6036,VALID,108,VALID,0,
2011-10-24, 03:22:04,VALID,998.692,VALID,0,VALID,92.4557,VALID,0,VALID,23.6036,VALID,108,VALID,0.263672,
2011-10-24, 03:23:04,VALID,998.708,VALID,0,VALID,92.4786,VALID,0,VALID,23.6036,VALID,80,VALID,0.803516,
2011-10-24, 03:24:04,VALID,998.677,VALID,0,VALID,92.41,VALID,0,VALID,23.5841,VALID,73,VALID,0.876562,
2011-10-24, 03:25:04,VALID,998.722,VALID,0,VALID,92.3489,VALID,0,VALID,23.5859,VALID,67,VALID,0.750391,
2011-10-24, 03:26:04,VALID,998.734,VALID,0,VALID,92.3337,VALID,0,VALID,23.5646,VALID,50,VALID,0.751172,
2011-10-24, 03:27:04,VALID,998.73,VALID,0,VALID,92.3413,VALID,0,VALID,23.5646,VALID,32,VALID,0.927344,
2011-10-24, 03:28:04,VALID,998.715,VALID,0,VALID,92.3871,VALID,0,VALID,23.5646,VALID,32,VALID,0.717578,
2011-10-24, 03:29:04,VALID,998.732,VALID,0,VALID,92.4328,VALID,0,VALID,23.5451,VALID,26,VALID,0.753516,
2011-10-24, 03:30:04,VALID,998.747,VALID,0,VALID,92.4786,VALID,0,VALID,23.5451,VALID,25,VALID,0.727344,
2011-10-24, 03:31:04,VALID,998.723,VALID,0,VALID,92.5168,VALID,0,VALID,23.5256,VALID,25,VALID,0.664453,
2011-10-24, 03:32:04,VALID,998.734,VALID,0,VALID,92.5626,VALID,0,VALID,23.5451,VALID,25,VALID,0.617578,
2011-10-24, 03:33:04,VALID,998.693,VALID,0,VALID,92.5931,VALID,0,VALID,23.5451,VALID,25,VALID,0.582812,
2011-10-24, 03:34:04,VALID,998.699,VALID,0,VALID,92.6007,VALID,0,VALID,23.5061,VALID,25,VALID,0.733984,
2011-10-24, 03:35:04,VALID,998.7,VALID,0,VALID,92.6388,VALID,0,VALID,23.5061,VALID,25,VALID,0.699219,
2011-10-24, 03:36:04,VALID,998.665,VALID,0,VALID,92.6999,VALID,0,VALID,23.5256,VALID,25,VALID,0.544141,
2011-10-24, 03:37:04,VALID,998.691,VALID,0,VALID,92.7685,VALID,0,VALID,23.5256,VALID,25,VALID,0.665625,
2011-10-24, 03:38:04,VALID,998.687,VALID,0,VALID,92.8143,VALID,0,VALID,23.5256,VALID,25,VALID,0.703906,
2011-10-24, 03:39:04,VALID,998.698,VALID,0,VALID,92.883,VALID,0,VALID,23.5256,VALID,25,VALID,0.968359,
2011-10-24, 03:40:04,VALID,998.715,VALID,0,VALID,92.9364,VALID,0,VALID,23.5061,VALID,27,VALID,1.4832,
2011-10-24, 03:41:04,VALID,998.713,VALID,0,VALID,92.9669,VALID,0,VALID,23.4866,VALID,26,VALID,1.60742,
2011-10-24, 03:42:04,VALID,998.726,VALID,0,VALID,92.9745,VALID,0,VALID,23.4263,VALID,30,VALID,1.40469,
2011-10-24, 03:43:04,VALID,998.737,VALID,0,VALID,92.9822,VALID,0,VALID,23.4085,VALID,32,VALID,1.49219,
2011-10-24, 03:44:04,VALID,998.757,VALID,0,VALID,92.9745,VALID,0,VALID,23.3695,VALID,24,VALID,1.16875,
2011-10-24, 03:45:04,VALID,998.784,VALID,0,VALID,92.9364,VALID,0,VALID,23.3287,VALID,32,VALID,0.846484,
2011-10-24, 03:46:04,VALID,998.779,VALID,0,VALID,92.9517,VALID,0,VALID,23.35,VALID,32,VALID,0.746094,